Regional Weather Roundup
Issued by NWS

Home | Current Version | Previous Version | Graphics & Text | Print | Product List | Glossary On
Versions: 1 2 3 4 5 6 7 8 9 10 11 12 13 14 15 16 17 18 19 20 21 22 23 24 25 26 27 28 29 30 31 32 33 34 35 36 37 38 39 40 41 42 43 44 45 46 47 48 49 50
000
ASUS45 KPSR 280410
RWRAZ

ARIZONA REGIONAL HOURLY WEATHER ROUNDUP
NATIONAL WEATHER SERVICE TUCSON AZ
900 PM MST SAT MAY 27 2017

NOTE: FAIR INDICATES FEW OR NO CLOUDS BELOW 12,000 FEET WITH NO
SIGNIFICANT WEATHER AND/OR OBSTRUCTIONS TO VISIBILITY.

AZZ001>003-036-280500-
NORTHWEST ARIZONA

CITY           SKY/WX    TMP DP  RH WIND       PRES   REMARKS
BULLHEAD CITY  CLEAR     88  30  12 CALM      29.84R
KINGMAN        CLEAR     69  21  16 MISG      30.02R
$$

AZZ004>008-015-016-018-280500-
NORTH CENTRAL ARIZONA

CITY           SKY/WX    TMP DP  RH WIND       PRES   REMARKS
GRAND CANYON   CLEAR     49  26  41 CALM      30.21R
WILLIAMS       CLEAR     61  23  23 SW7G13    30.22R
PRESCOTT       CLEAR     66  21  18 SW5       30.12R
FLAGSTAFF      CLEAR     55  24  30 SW3       30.22R
PAYSON         PTCLDY    70  19  14 W6        30.15R
PAGE           CLEAR     73  29  19 W3        30.04R
$$

AZZ009>014-017-280500-
NORTHEAST ARIZONA

CITY           SKY/WX    TMP DP  RH WIND       PRES   REMARKS
WINSLOW        PTCLDY    68  21  16 W8        30.08R
SAINT JOHNS    PTCLDY    68  18  14 W9        30.12R
WINDOW ROCK    CLEAR     59  26  28 N7        30.21R
SHOW LOW       CLEAR     59  16  18 S8        30.20R
$$

AZZ023-280500-
GREATER PHOENIX AREA

CITY           SKY/WX    TMP DP  RH WIND       PRES   REMARKS
PHOENIX        CLEAR     88  31  13 SW5       29.84S
BUCKEYE        CLEAR     82  28  14 W6        29.86R
LUKE AFB       CLEAR     85  38  19 SW7       29.84S
DEER VALLEY    CLEAR     85  30  13 SW3       29.87R
SCOTTSDALE     CLEAR     86  31  13 CALM      29.89R
MESA-GATEWAY   CLEAR     82  25  12 CALM      29.88S
CHANDLER       CLEAR     84  25  11 CALM      29.87R
$$

AZZ027-028-280500-
SOUTHWEST MARICOPA COUNTY AND PINAL COUNTY

CITY           SKY/WX    TMP DP  RH WIND       PRES   REMARKS
CASA GRANDE    CLEAR     82  25  12 N3        29.89R
$$

AZZ503-504-507>509-280500-
SOUTHEAST ARIZONA

CITY           SKY/WX    TMP DP  RH WIND       PRES   REMARKS
TUCSON         CLEAR     83  18   9 NW7       29.96R
DAVIS-MONTHAN  CLEAR     81  17   9 NW7       29.95R
NOGALES        CLEAR     68   7   9 E7        30.04R
SIERRA VISTA   CLEAR     72   5   7 W12       30.10R
DOUGLAS        CLEAR     68   7   9 CALM      30.05R
SAFFORD        CLEAR     77  10   7 NW8       29.96R
$$

AZZ020-021-025-026-031-280500-
SOUTHWEST ARIZONA

CITY           SKY/WX    TMP DP  RH WIND       PRES   REMARKS
YUMA           CLEAR     86  48  26 SW6       29.84R
$$

CAZ031-033-041-043-047-048-061-280500-
SOUTHERN CALIFORNIA

CITY           SKY/WX    TMP DP  RH WIND       PRES   REMARKS
DOWNTOWN L.A.  CLEAR     64  51  62 W3        30.02S
L.A. AIRPORT   PTCLDY    62  53  72 W13       30.02S
SAN DIEGO      PTCLDY    62  54  74 NW9       30.05S
BURBANK        CLEAR     63  49  60 S6        30.01S
ONTARIO        PTCLDY    65  50  58 SW9       30.01R
RIVERSIDE      CLEAR     64  52  64 W9        30.01R
PALM SPRINGS   CLEAR     85  46  25 NW16      29.88R
EL CENTRO NAS  CLEAR     82  34  17 W7        29.84R
IMPERIAL       CLEAR     87  34  15 CALM      29.81S
BLYTHE         CLEAR     88  19   8 SW6       29.83R
NEEDLES        CLEAR     91  19   7 W7        29.86R
$$

NVZ020-UTZ003-280500-
SOUTHERN NEVADA-UTAH

CITY           SKY/WX    TMP DP  RH WIND       PRES   REMARKS
LAS VEGAS      PTCLDY    87  25  10 E7        29.92R
SALT LAKE CITY CLEAR     63  42  46 W6        30.20S
$$

NMZ009-TXZ055-280500-
NEW MEXICO-WEST TEXAS

CITY           SKY/WX    TMP DP  RH WIND       PRES   REMARKS
ALBUQUERQUE    CLEAR     73  21  14 N12       30.08R
EL PASO        CLEAR     83  14   7 NW6       29.98R
$$


........................KEY........................
SKY/WX - SKY CONDITION/WEATHER
TMP    - TEMPERATURE IN FAHRENHEIT
DP     - DEWPOINT IN FAHRENHEIT
RH     - RELATIVE HUMIDITY IN PERCENT
WIND   - DIRECTION AND SPEED IN MILES PER HOUR (MPH)
VRB    - VARIABLE WIND DIRECTION
PRES   - MEAN SEA LEVEL PRESSURE IN INCHES OF MERCURY
         F - FALLING PRESSURE   R - RISING PRESSURE
         S - STEADY PRESSURE
VSB    - VISIBILITY IN MILES
HX     - HEAT INDEX IN FAHRENHEIT
WCI    - WIND CHILL INDEX IN FAHRENHEIT
TC     - TEMPERATURE IN CELSIUS WHICH IS ALSO KNOWN AS
         TEMPERATURE IN CENTIGRADE
AFB    - AIR FORCE BASE
         LUKE AFB IS LUKE AIR FORCE BASE
         DAVIS-MONTHAN IS DAVIS-MONTHAN AIR FORCE BASE
NAS    - NAVAL AIR STATION
         EL CENTRO NAS IS EL CENTRO NAVAL AIR STATION
N/A    - NOT AVAILABLE





USA.gov is the U.S. government's official web portal to all federal, state and local government web resources and services.